Overview Statistics Trail Chart Weather Telemetry Raw packets
 

This is the latest recevied weather packets stored in our database for station/object KE5QKR. If no packets are shown the sender has not sent any weather packets the latest 10 day(s).

<< 1 2 3 4 5 6 7 >>
Time Temp. Humidity Pressure Rain* Wind** Luminosity Snow
1777942087 18.33° C 73% 1012.6 hPa 0 mm - 0 W/m² -
1777941782 18.33° C 70% 1012.4 hPa 0 mm - 1 W/m² -
1777941480 18.89° C 70% 1012.5 hPa 0 mm - 2 W/m² -
1777941178 18.89° C 69% 1012.5 hPa 0 mm - 4 W/m² -
1777940874 19.44° C 68% 1012.4 hPa 0 mm - 6 W/m² -
1777940571 19.44° C 67% 1012.5 hPa 0 mm - 8 W/m² -
1777940269 20° C 66% 1012.3 hPa 0 mm - 10 W/m² -
1777939966 20° C 66% 1012.5 hPa 0 mm - 12 W/m² -
1777939663 20.56° C 64% 1012.6 hPa 0 mm - 14 W/m² -
1777939361 20.56° C 61% 1012.6 hPa 0 mm - 18 W/m² -
1777939057 21.11° C 61% 1012.3 hPa 0 mm - 22 W/m² -
1777938753 21.11° C 60% 1012.4 hPa 0 mm - 24 W/m² -
1777938451 21.11° C 58% 1012.5 hPa 0 mm - 26 W/m² -
1777938148 21.67° C 59% 1012.5 hPa 0 mm - 28 W/m² -
1777937844 21.67° C 58% 1012.6 hPa 0 mm - 33 W/m² -
1777937540 21.67° C 56% 1012.5 hPa 0 mm - 31 W/m² -
1777937237 22.22° C 55% 1012.7 hPa 0 mm - 34 W/m² -
1777936934 22.22° C 55% 1012.7 hPa 0 mm - 35 W/m² -
1777936631 22.22° C 55% 1012.6 hPa 0 mm - 38 W/m² -
1777936331 22.22° C 54% 1012.9 hPa 0 mm - 42 W/m² -
1777936023 22.78° C 55% 1012.7 hPa 0 mm - 54 W/m² -
1777935722 22.78° C 54% 1012.7 hPa 0 mm - 42 W/m² -
1777935420 23.33° C 53% 1013 hPa 0 mm - 74 W/m² -
1777935116 23.33° C 52% 1013 hPa 0 mm - 45 W/m² -
1777934813 23.33° C 51% 1012.8 hPa 0 mm - 96 W/m² -

* Rain latest hour (hover to see other rain measurements)
** Current wind speed in m/s (hover to see current wind gust speed)